STARLINK-2378, 47916

Orbit data source: Space-Track

STARLINK-2378, 47916 is a payload satellite owned by SpaceX/Seattle (US) in LEO that was launched on Sun, 14 Mar 2021 UTC via an FALCON 9 launch vehicle from the Air Force Eastern Test Range (AFETR). Payload-class satellites include a variety of spacecraft equipped with specific instruments for various scientific and technological missions. These include communications satellites like Starlink; space stations such as the ISS; scientific satellites like the Hubble; Earth observation satellites from companies like Planet Labs, Umbra, and HawkEye 360; GPS; miniature CubeSats for education and research; and military/defense satellites.

Loading next visibility...
Identifier
47916, 2021-021BJ
Orbit
LEO
Country
Flag of USUS
Related business
Manufacturer
SpaceX/Seattle
Mission
Operational Commercial Communications
Bus & Motor
STARLINK, Unknown motor
Mass
260 kg wet, ~248 kg dry
Launch date (UTC)
2021-03-14 (5 years ago)
Launch vehicle
FALCON 9
Launch site
Air Force Eastern Test Range (AFETR)
Object type
Payload
Rocket body
Debris
Shape & HBR
Box + 1 Pan, 10.1 m
Radar Cross Section
13.562 m², Large (>1 m²)

Expand to show TLE details & history
Last TLE update: 2 days ago

TLE from 2 days ago
0 STARLINK-2378
1 47916U 21021BJ  26171.32077128  .00001473  00000-0  59223-4 0  9990
2 47916  53.1585 137.9625 0001246  82.0504 278.0639 15.31704938292134
Epoch: 2026-06-20T07:41Z
TLE epoch observation values (Epoch: 2026-06-20T07:41:54.638Z)
Latitude
-0.00001°
Longitude
113.94776°
Altitude
471.506 km
Speed
7.632 km/s
True Right ascension
09h 11m 50s
True Declination
0° 00' 00"
Sunlit
Object was in daylight at epoch
Visualization orbit readout
Latitude
Unknown
Longitude
Unknown
Altitude
Unknown
Speed
Unknown
Apparent Right ascension
Unknown
Apparent Declination
Unknown
Sunlit
N/A
Visualization observer readout
Local Sidereal Time
21:31:02
Azimuth
Unknown
Elevation
Unknown
Doppler factor
Unknown
Orbital elements
Apogee altitude
471.836 km
Perigee altitude
470.129 km
Semi-major axis
6,849.119 km
Eccentricity
0.00012
Inclination
53.1585°
RAAN
137.9625°
Arg. of periapsis
82.0504°
True anomaly
278.04976°
Mean anomaly
278.0639°
Eccentric anomaly
278.05683°
Mean motion
3.82905 °/min
Orbital period
94.02 mins
BSTAR
0.000059223
Loading maneuver chart data...
Computing Atmospheric mass density...

Documentation

Showing up to 5 results
|